• In Hungary
  • List of Countries
  • For 7 days
  • Water Temperature
  • Satellite Maps
  • Weather Map
  • News
  • Weather Widgets
  • user-avatar
    Login

    Hourly Weather Kajhajdi

    Today, 21 September, Friday

    Time Temperature Precipitation Wind Pressure Humidity
    00:00 +42°C° 0 mm 4 mps 754 mmHg 21%
    01:00 +41°C° 0 mm 4 mps 753 mmHg 22%
    02:00 +41°C° 0 mm 5 mps 753 mmHg 22%
    03:00 +40°C° 0 mm 5 mps 753 mmHg 24%
    04:00 +40°C° 0 mm 5 mps 753 mmHg 25%
    05:00 +37°C° 0 mm 5 mps 754 mmHg 28%
    06:00 +39°C° 0 mm 6 mps 754 mmHg 28%
    07:00 +40°C° 0 mm 6 mps 755 mmHg 27%
    08:00 +40°C° 0 mm 7 mps 755 mmHg 27%
    09:00 +43°C° 0 mm 7 mps 755 mmHg 25%
    10:00 +44°C° 0 mm 7 mps 755 mmHg 22%
    11:00 +46°C° 0 mm 7 mps 755 mmHg 20%
    12:00 +46°C° 0 mm 7 mps 754 mmHg 19%
    13:00 +47°C° 0 mm 6 mps 754 mmHg 18%
    14:00 +48°C° 0 mm 6 mps 753 mmHg 16%
    15:00 +47°C° 0 mm 5 mps 753 mmHg 17%
    16:00 +47°C° 0 mm 4 mps 753 mmHg 17%
    17:00 +45°C° 0 mm 4 mps 753 mmHg 18%
    18:00 +44°C° 0 mm 4 mps 753 mmHg 20%
    19:00 +44°C° 0 mm 3 mps 753 mmHg 23%
    20:00 +43°C° 0 mm 3 mps 754 mmHg 25%
    21:00 +42°C° 0 mm 4 mps 754 mmHg 29%
    22:00 +41°C° 0 mm 5 mps 754 mmHg 33%
    23:00 +40°C° 0 mm 7 mps 754 mmHg 37%

    Tomorrow, 22 September, Saturday

    Time Temperature Precipitation Wind Pressure Humidity
    00:00 +39°C° 0 mm 7 mps 754 mmHg 42%
    01:00 +38°C° 0 mm 7 mps 754 mmHg 46%
    02:00 +36°C° 0 mm 7 mps 754 mmHg 51%
    03:00 +36°C° 0 mm 7 mps 755 mmHg 54%
    04:00 +35°C° 0 mm 7 mps 755 mmHg 56%
    05:00 +35°C° 0 mm 6 mps 755 mmHg 59%
    06:00 +35°C° 0 mm 6 mps 756 mmHg 59%
    07:00 +35°C° 0 mm 6 mps 756 mmHg 59%
    08:00 +35°C° 0 mm 5 mps 757 mmHg 58%
    09:00 +36°C° 0 mm 5 mps 757 mmHg 54%
    10:00 +37°C° 0 mm 5 mps 757 mmHg 49%
    11:00 +39°C° 0 mm 6 mps 757 mmHg 45%
    12:00 +41°C° 0 mm 5 mps 756 mmHg 41%
    13:00 +42°C° 0 mm 5 mps 755 mmHg 37%
    14:00 +43°C° 0 mm 4 mps 754 mmHg 33%
    15:00 +43°C° 0 mm 3 mps 754 mmHg 31%
    16:00 +42°C° 0 mm 2 mps 754 mmHg 30%
    17:00 +42°C° 0 mm 1 mps 754 mmHg 29%
    18:00 +41°C° 0 mm 1 mps 755 mmHg 30%
    19:00 +41°C° 0 mm 2 mps 755 mmHg 32%
    20:00 +40°C° 0 mm 2 mps 756 mmHg 33%
    21:00 +40°C° 0 mm 3 mps 756 mmHg 36%
    22:00 +40°C° 0 mm 5 mps 756 mmHg 39%
    23:00 +39°C° 0 mm 6 mps 756 mmHg 42%

    Day after tomorrow, 23 September, Sunday

    Time Temperature Precipitation Wind Pressure Humidity
    00:00 +38°C° 0.2 mm 6 mps 756 mmHg 47%
    01:00 +36°C° 0.2 mm 6 mps 756 mmHg 52%
    02:00 +35°C° 0.2 mm 6 mps 756 mmHg 57%
    03:00 +34°C° 0.1 mm 6 mps 756 mmHg 58%
    04:00 +34°C° 0.1 mm 7 mps 756 mmHg 60%
    05:00 +33°C° 0.1 mm 7 mps 756 mmHg 61%
    06:00 +33°C° 0 mm 7 mps 756 mmHg 60%
    07:00 +34°C° 0 mm 6 mps 757 mmHg 59%
    08:00 +34°C° 0 mm 6 mps 757 mmHg 58%
    09:00 +35°C° 0 mm 5 mps 757 mmHg 52%
    10:00 +37°C° 0 mm 5 mps 757 mmHg 46%
    11:00 +40°C° 0 mm 4 mps 757 mmHg 40%
    12:00 +41°C° 0 mm 4 mps 756 mmHg 36%
    13:00 +42°C° 0 mm 4 mps 755 mmHg 32%
    14:00 +43°C° 0 mm 4 mps 754 mmHg 28%
    15:00 +43°C° 0 mm 3 mps 754 mmHg 27%
    16:00 +43°C° 0 mm 3 mps 754 mmHg 25%
    17:00 +43°C° 0 mm 3 mps 754 mmHg 24%
    18:00 +43°C° 0 mm 3 mps 754 mmHg 26%
    19:00 +42°C° 0 mm 3 mps 755 mmHg 27%
    20:00 +40°C° 0 mm 3 mps 755 mmHg 29%
    21:00 +40°C° 0 mm 4 mps 756 mmHg 33%
    22:00 +39°C° 0 mm 6 mps 756 mmHg 36%
    23:00 +38°C° 0 mm 7 mps 756 mmHg 40%

    24 September, Monday

    Time Temperature Precipitation Wind Pressure Humidity
    00:00 +36°C° 0 mm 6 mps 756 mmHg 42%
    01:00 +36°C° 0 mm 6 mps 756 mmHg 44%
    02:00 +35°C° 0 mm 5 mps 755 mmHg 45%
    03:00 +34°C° 0.1 mm 5 mps 755 mmHg 47%
    04:00 +34°C° 0.1 mm 5 mps 756 mmHg 49%
    05:00 +33°C° 0.1 mm 5 mps 756 mmHg 50%
    06:00 +34°C° 0 mm 6 mps 756 mmHg 49%
    07:00 +34°C° 0 mm 6 mps 756 mmHg 48%
    08:00 +34°C° 0 mm 6 mps 757 mmHg 47%
    09:00 +36°C° 0 mm 5 mps 756 mmHg 41%
    10:00 +38°C° 0 mm 4 mps 756 mmHg 34%
    11:00 +41°C° 0 mm 4 mps 756 mmHg 27%
    12:00 +42°C° 0 mm 3 mps 755 mmHg 25%
    13:00 +44°C° 0 mm 3 mps 754 mmHg 22%
    14:00 +45°C° 0 mm 2 mps 753 mmHg 19%
    15:00 +45°C° 0 mm 2 mps 753 mmHg 18%
    16:00 +45°C° 0 mm 2 mps 753 mmHg 18%
    17:00 +44°C° 0 mm 1 mps 753 mmHg 17%
    18:00 +44°C° 0 mm 3 mps 754 mmHg 22%
    19:00 +43°C° 0 mm 5 mps 755 mmHg 26%
    20:00 +41°C° 0 mm 7 mps 755 mmHg 31%
    21:00 +40°C° 0 mm 7 mps 756 mmHg 37%
    22:00 +38°C° 0 mm 8 mps 756 mmHg 43%
    23:00 +37°C° 0 mm 8 mps 756 mmHg 48%

    25 September, Tuesday

    Time Temperature Precipitation Wind Pressure Humidity
    00:00 +35°C° 0 mm 7 mps 756 mmHg 48%
    01:00 +35°C° 0 mm 7 mps 756 mmHg 48%
    02:00 +35°C° 0 mm 6 mps 756 mmHg 47%
    03:00 +34°C° 0.1 mm 5 mps 756 mmHg 48%
    04:00 +34°C° 0.1 mm 4 mps 756 mmHg 49%
    05:00 +34°C° 0.1 mm 3 mps 756 mmHg 49%
    06:00 +34°C° 0 mm 4 mps 757 mmHg 49%
    07:00 +34°C° 0 mm 4 mps 757 mmHg 48%
    08:00 +34°C° 0 mm 5 mps 757 mmHg 47%
    09:00 +36°C° 0 mm 5 mps 757 mmHg 43%
    10:00 +37°C° 0 mm 4 mps 757 mmHg 38%
    11:00 +38°C° 0 mm 4 mps 757 mmHg 33%
    12:00 +39°C° 0 mm 3 mps 756 mmHg 31%
    13:00 +40°C° 0 mm 3 mps 755 mmHg 28%
    14:00 +41°C° 0 mm 2 mps 755 mmHg 26%
    15:00 +41°C° 0 mm 2 mps 755 mmHg 26%
    16:00 +41°C° 0 mm 2 mps 755 mmHg 25%
    17:00 +41°C° 0 mm 2 mps 755 mmHg 25%
    18:00 +40°C° 0.2 mm 2 mps 755 mmHg 27%
    19:00 +39°C° 0.2 mm 3 mps 756 mmHg 29%
    20:00 +39°C° 0.2 mm 3 mps 757 mmHg 30%
    21:00 +38°C° 0.1 mm 3 mps 757 mmHg 32%
    22:00 +37°C° 0.1 mm 3 mps 757 mmHg 33%
    23:00 +37°C° 0.1 mm 3 mps 757 mmHg 35%

    26 September, Wednesday

    Time Temperature Precipitation Wind Pressure Humidity
    00:00 +36°C° 0 mm 4 mps 757 mmHg 38%
    01:00 +36°C° 0 mm 4 mps 756 mmHg 41%
    02:00 +35°C° 0 mm 5 mps 756 mmHg 44%
    03:00 +35°C° 0 mm 5 mps 756 mmHg 45%
    04:00 +34°C° 0 mm 5 mps 757 mmHg 47%
    05:00 +34°C° 0 mm 5 mps 757 mmHg 48%
    06:00 +34°C° 0.1 mm 5 mps 757 mmHg 47%
    07:00 +34°C° 0.1 mm 5 mps 758 mmHg 46%
    08:00 +35°C° 0.1 mm 5 mps 758 mmHg 45%
    09:00 +36°C° 0 mm 5 mps 758 mmHg 40%
    10:00 +39°C° 0 mm 5 mps 758 mmHg 35%
    11:00 +41°C° 0 mm 5 mps 757 mmHg 30%
    12:00 +42°C° 0 mm 5 mps 756 mmHg 27%
    13:00 +43°C° 0 mm 5 mps 755 mmHg 25%
    14:00 +45°C° 0 mm 6 mps 754 mmHg 22%
    15:00 +45°C° 0 mm 5 mps 755 mmHg 21%
    16:00 +45°C° 0 mm 5 mps 755 mmHg 21%
    17:00 +44°C° 0 mm 4 mps 755 mmHg 20%
    18:00 +43°C° 0.2 mm 4 mps 755 mmHg 22%
    19:00 +42°C° 0.2 mm 4 mps 755 mmHg 24%
    20:00 +41°C° 0.2 mm 4 mps 756 mmHg 26%
    21:00 +41°C° 0 mm 4 mps 756 mmHg 26%
    22:00 +40°C° 0 mm 5 mps 756 mmHg 26%
    23:00 +40°C° 0 mm 6 mps 755 mmHg 27%
    Show more